TimeCST,TemperatureF,Dew PointF,Humidity,Sea Level PressureIn,VisibilityMPH,Wind Direction,Wind SpeedMPH,Gust SpeedMPH,PrecipitationIn,Events,Conditions,WindDirDegrees,DateUTC
12:00 AM,-42,,,30.46,0,WSW,9.2,,,,,240,2013-02-27 06:00:00
12:00 AM,-41.8,-9999,N/A,30.46,0.4,WSW,8.1,-,N/A,,Unknown,250,2013-02-27 06:00:00
12:05 AM,-41.8,-9999,N/A,30.42,0.4,WSW,6.9,-,N/A,,Unknown,250,2013-02-27 06:05:00
12:09 AM,-41.8,-9999,N/A,30.42,0.4,WSW,8.1,-,N/A,,Unknown,250,2013-02-27 06:09:00
12:13 AM,-41.8,-9999,N/A,30.42,0.6,WSW,11.5,-,N/A,,Unknown,250,2013-02-27 06:13:00
12:17 AM,-41.8,-9999,N/A,30.42,1.0,WSW,13.8,-,N/A,,Unknown,250,2013-02-27 06:17:00
12:28 AM,-41.8,-9999,N/A,30.42,2.0,WSW,9.2,-,N/A,,Unknown,250,2013-02-27 06:28:00
12:36 AM,-41.8,-9999,N/A,30.43,1.1,SW,6.9,-,N/A,,Unknown,230,2013-02-27 06:36:00
12:37 AM,-41.8,-9999,N/A,30.43,1.0,SW,8.1,-,N/A,,Unknown,230,2013-02-27 06:37:00
12:38 AM,-41.8,-9999,N/A,30.44,0.6,WSW,9.2,-,N/A,,Unknown,240,2013-02-27 06:38:00
12:42 AM,-41.8,-9999,N/A,30.43,0.4,WSW,8.1,-,N/A,,Unknown,240,2013-02-27 06:42:00
12:51 AM,-43.6,-9999,N/A,30.44,0.4,WSW,9.2,-,N/A,,Unknown,240,2013-02-27 06:51:00
1:00 AM,-43.6,-9999,N/A,30.48,0.2,SW,9.2,-,N/A,,Unknown,230,2013-02-27 07:00:00
1:23 AM,-43.6,-9999,N/A,30.44,1.0,WSW,9.2,-,N/A,,Unknown,250,2013-02-27 07:23:00
1:27 AM,-43.6,-9999,N/A,30.44,1.5,WSW,8.1,-,N/A,,Unknown,250,2013-02-27 07:27:00
1:42 AM,-43.6,-9999,N/A,30.44,4.0,WSW,8.1,-,N/A,,Unknown,250,2013-02-27 07:42:00
1:46 AM,-43.6,-9999,N/A,30.44,2.5,WSW,8.1,-,N/A,,Unknown,250,2013-02-27 07:46:00
1:49 AM,-43.6,-9999,N/A,30.44,1.2,WSW,9.2,-,N/A,,Unknown,250,2013-02-27 07:49:00
1:53 AM,-43.6,-9999,N/A,30.44,1.0,WSW,9.2,-,N/A,,Unknown,250,2013-02-27 07:53:00
1:55 AM,-43.6,-9999,N/A,30.44,0.6,WSW,9.2,-,N/A,,Unknown,240,2013-02-27 07:55:00
1:59 AM,-43.6,-9999,N/A,30.44,0.4,SW,6.9,-,N/A,,Unknown,230,2013-02-27 07:59:00
2:00 AM,-43.6,-9999,N/A,30.48,0.4,SW,6.9,-,N/A,,Unknown,230,2013-02-27 08:00:00
3:00 AM,-45,,,30.49,0,WSW,8.1,,,,,240,2013-02-27 09:00:00
3:26 AM,-43.6,-9999,N/A,30.47,0.2,SW,10.4,-,N/A,,Unknown,230,2013-02-27 09:26:00
3:35 AM,-43.6,-9999,N/A,30.46,0.2,SW,10.4,-,N/A,,Unknown,220,2013-02-27 09:35:00
3:42 AM,-43.6,-9999,N/A,30.47,0.2,SW,11.5,-,N/A,,Unknown,230,2013-02-27 09:42:00
3:49 AM,-43.6,-9999,N/A,30.47,0.2,SW,11.5,-,N/A,,Unknown,230,2013-02-27 09:49:00
4:00 AM,-43.6,-9999,N/A,30.51,0.2,SW,11.5,-,N/A,,Unknown,220,2013-02-27 10:00:00
4:21 AM,-43.6,-9999,N/A,30.47,0.2,SW,10.4,-,N/A,,Unknown,220,2013-02-27 10:21:00
4:31 AM,-45.4,-9999,N/A,30.47,0.2,SW,10.4,-,N/A,,Unknown,220,2013-02-27 10:31:00
4:35 AM,-45.4,-9999,N/A,30.47,0.2,SW,10.4,-,N/A,,Unknown,220,2013-02-27 10:35:00
4:42 AM,-43.6,-9999,N/A,30.47,0.2,SW,12.7,-,N/A,,Unknown,230,2013-02-27 10:42:00
4:46 AM,-43.6,-9999,N/A,30.47,0.2,SW,11.5,-,N/A,,Unknown,230,2013-02-27 10:46:00
5:00 AM,-43.6,-9999,N/A,30.51,0.2,SW,13.8,-,N/A,,Unknown,230,2013-02-27 11:00:00
5:39 AM,-43.6,-9999,N/A,30.48,0.2,WSW,12.7,-,N/A,,Unknown,240,2013-02-27 11:39:00
6:00 AM,-44,,,30.53,0,SW,12.7,,,,,230,2013-02-27 12:00:00
6:59 AM,-43.6,-9999,N/A,30.49,0.6,WSW,6.9,-,N/A,,Unknown,250,2013-02-27 12:59:00
7:00 AM,-43.6,-9999,N/A,30.52,0.6,WSW,6.9,-,N/A,,Unknown,250,2013-02-27 13:00:00
7:38 AM,-43.6,-9999,N/A,30.50,0.4,WSW,11.5,-,N/A,,Unknown,240,2013-02-27 13:38:00
8:00 AM,-43.6,-9999,N/A,30.54,0.2,SW,11.5,-,N/A,,Unknown,230,2013-02-27 14:00:00
8:16 AM,-41.8,-9999,N/A,30.51,0.5,SW,13.8,-,N/A,,Unknown,220,2013-02-27 14:16:00
8:33 AM,-43.6,-9999,N/A,30.50,0.4,WSW,10.4,-,N/A,,Unknown,240,2013-02-27 14:33:00
8:37 AM,-43.6,-9999,N/A,30.50,0.4,WSW,10.4,-,N/A,,Unknown,240,2013-02-27 14:37:00
9:00 AM,-43,,,30.54,0,SW,10.4,,,,,230,2013-02-27 15:00:00
9:00 AM,-41.8,-9999,N/A,30.54,0.2,SW,11.5,-,N/A,,Unknown,230,2013-02-27 15:00:00
10:00 AM,-41.8,-9999,N/A,30.54,0.2,SW,10.4,-,N/A,,Unknown,230,2013-02-27 16:00:00
10:29 AM,-41.8,-9999,N/A,30.50,0.8,West,9.2,-,N/A,,Unknown,260,2013-02-27 16:29:00
10:32 AM,-41.8,-9999,N/A,30.49,1.5,West,9.2,-,N/A,,Unknown,270,2013-02-27 16:32:00
10:53 AM,-40.0,-9999,N/A,30.51,1.4,SW,5.8,-,N/A,,Unknown,220,2013-02-27 16:53:00
10:56 AM,-40.0,-9999,N/A,30.51,1.0,SW,8.1,-,N/A,,Unknown,220,2013-02-27 16:56:00
10:58 AM,-40.0,-9999,N/A,30.51,0.6,SW,9.2,-,N/A,,Unknown,230,2013-02-27 16:58:00
11:00 AM,-40.0,-9999,N/A,30.55,0.6,WSW,9.2,-,N/A,,Unknown,240,2013-02-27 17:00:00
11:46 AM,-38.2,-9999,N/A,30.52,1.0,WSW,8.1,-,N/A,,Unknown,250,2013-02-27 17:46:00
11:59 AM,-38.2,-9999,N/A,30.52,1.0,SW,4.6,-,N/A,,Unknown,230,2013-02-27 17:59:00
12:00 PM,-38,,,30.56,1,WSW,5.8,,,,,240,2013-02-27 18:00:00
12:14 PM,-38.2,-9999,N/A,30.52,0.6,SW,8.1,-,N/A,,Unknown,220,2013-02-27 18:14:00
12:54 PM,-36.4,-9999,N/A,30.53,1.0,SW,8.1,-,N/A,,Unknown,230,2013-02-27 18:54:00
1:00 PM,-36.4,-9999,N/A,30.56,1.0,WSW,5.8,-,N/A,,Unknown,240,2013-02-27 19:00:00
1:04 PM,-36.4,-9999,N/A,30.53,1.0,WSW,6.9,-,N/A,,Unknown,240,2013-02-27 19:04:00
1:27 PM,-36.4,-9999,N/A,30.53,0.6,SW,6.9,-,N/A,,Unknown,230,2013-02-27 19:27:00
1:34 PM,-36.4,-9999,N/A,30.54,0.6,WSW,6.9,-,N/A,,Unknown,240,2013-02-27 19:34:00
1:39 PM,-36.4,-9999,N/A,30.54,1.0,WSW,5.8,-,N/A,,Unknown,250,2013-02-27 19:39:00
1:54 PM,-36.4,-9999,N/A,30.55,1.1,WSW,5.8,-,N/A,,Unknown,240,2013-02-27 19:54:00
2:00 PM,-36.4,-9999,N/A,30.58,1.1,WSW,6.9,-,N/A,,Unknown,250,2013-02-27 20:00:00
2:41 PM,-36.4,-9999,N/A,30.56,1.0,SW,8.1,-,N/A,,Unknown,230,2013-02-27 20:41:00
2:59 PM,-36.4,-9999,N/A,30.56,1.1,WSW,6.9,-,N/A,,Unknown,240,2013-02-27 20:59:00
3:00 PM,-37,,,30.60,1,WSW,6.9,,,,,240,2013-02-27 21:00:00
3:00 PM,-36.4,-9999,N/A,30.60,1.1,WSW,6.9,-,N/A,,Unknown,240,2013-02-27 21:00:00
3:37 PM,-36.4,-9999,N/A,30.57,1.0,WSW,6.9,-,N/A,,Unknown,240,2013-02-27 21:37:00
3:48 PM,-36.4,-9999,N/A,30.57,1.5,WSW,6.9,-,N/A,,Unknown,250,2013-02-27 21:48:00
3:58 PM,-36.4,-9999,N/A,30.57,1.4,WSW,6.9,-,N/A,,Unknown,240,2013-02-27 21:58:00
4:00 PM,-36.4,-9999,N/A,30.61,1.1,WSW,6.9,-,N/A,,Unknown,240,2013-02-27 22:00:00
4:11 PM,-36.4,-9999,N/A,30.57,1.1,WSW,6.9,-,N/A,,Unknown,250,2013-02-27 22:11:00
4:14 PM,-38.2,-9999,N/A,30.57,1.1,WSW,6.9,-,N/A,,Unknown,250,2013-02-27 22:14:00
4:27 PM,-38.2,-9999,N/A,30.58,1.1,SW,6.9,-,N/A,,Unknown,230,2013-02-27 22:27:00
4:29 PM,-38.2,-9999,N/A,30.58,1.0,WSW,6.9,-,N/A,,Unknown,240,2013-02-27 22:29:00
4:39 PM,-38.2,-9999,N/A,30.58,0.6,SW,6.9,-,N/A,,Unknown,230,2013-02-27 22:39:00
5:07 PM,-38.2,-9999,N/A,30.58,1.0,WSW,9.2,-,N/A,,Unknown,240,2013-02-27 23:07:00
5:10 PM,-38.2,-9999,N/A,30.58,0.6,WSW,6.9,-,N/A,,Unknown,240,2013-02-27 23:10:00
5:16 PM,-40.0,-9999,N/A,30.58,0.4,WSW,8.1,-,N/A,,Unknown,240,2013-02-27 23:16:00
6:00 PM,-41,,,30.62,0,WSW,9.2,,,,,250,2013-02-28 00:00:00
6:00 PM,-40.0,-9999,N/A,30.62,0.5,WSW,8.1,-,N/A,,Unknown,240,2013-02-28 00:00:00
6:07 PM,-41.8,-9999,N/A,30.58,0.1,WSW,9.2,-,N/A,,Unknown,250,2013-02-28 00:07:00
6:45 PM,-40.0,-9999,N/A,30.59,0.2,SW,11.5,-,N/A,,Unknown,220,2013-02-28 00:45:00
7:00 PM,-40.0,-9999,N/A,30.63,0.2,SW,9.2,-,N/A,,Unknown,230,2013-02-28 01:00:00
7:09 PM,-41.8,-9999,N/A,30.59,0.1,WSW,8.1,-,N/A,,Unknown,240,2013-02-28 01:09:00
7:25 PM,-40.0,-9999,N/A,30.59,0.5,WSW,9.2,-,N/A,,Unknown,240,2013-02-28 01:25:00
7:34 PM,-40.0,-9999,N/A,30.59,0.4,WSW,10.4,-,N/A,,Unknown,240,2013-02-28 01:34:00
8:00 PM,-41.8,-9999,N/A,30.62,0.2,WSW,8.1,-,N/A,,Unknown,240,2013-02-28 02:00:00
8:02 PM,-41.8,-9999,N/A,30.59,0.1,WSW,8.1,-,N/A,,Unknown,240,2013-02-28 02:02:00
8:38 PM,-40.0,-9999,N/A,30.59,0.4,WSW,8.1,-,N/A,,Unknown,240,2013-02-28 02:38:00
9:00 PM,-42,,,30.62,0,SW,9.2,,,,,230,2013-02-28 03:00:00
9:00 PM,-41.8,-9999,N/A,30.62,0.2,SW,9.2,-,N/A,,Unknown,230,2013-02-28 03:00:00
9:55 PM,-45.4,-9999,N/A,30.58,0.1,SSW,10.4,-,N/A,,Unknown,210,2013-02-28 03:55:00
10:00 PM,-45.4,-9999,N/A,30.61,0.1,SSW,10.4,-,N/A,,Unknown,210,2013-02-28 04:00:00
10:32 PM,-43.6,-9999,N/A,30.58,0.1,SW,12.7,-,N/A,,Unknown,220,2013-02-28 04:32:00
10:37 PM,-43.6,-9999,N/A,30.58,0.1,SW,12.7,-,N/A,,Unknown,220,2013-02-28 04:37:00
10:38 PM,-43.6,-9999,N/A,30.58,0.2,SW,12.7,-,N/A,,Unknown,220,2013-02-28 04:38:00
11:00 PM,-41.8,-9999,N/A,30.61,0.4,SW,15.0,-,N/A,,Unknown,230,2013-02-28 05:00:00
11:44 PM,-43.6,-9999,N/A,30.57,0.1,WSW,12.7,-,N/A,,Unknown,240,2013-02-28 05:44:00
11:47 PM,-43.6,-9999,N/A,30.57,0.1,WSW,12.7,-,N/A,,Unknown,240,2013-02-28 05:47:00
11:54 PM,-43.6,-9999,N/A,30.57,0.1,WSW,12.7,-,N/A,,Unknown,240,2013-02-28 05:54:00